Regional Weather Roundup
Issued by NWS

Home | Current Version | Previous Version | Graphics & Text | Print | Product List | Glossary On
Versions: 1 2 3 4 5 6 7 8 9 10 11 12 13 14 15 16 17 18 19 20 21 22 23 24 25 26 27 28 29 30 31 32 33 34 35 36 37 38 39 40 41 42 43 44 45 46 47 48 49 50
000
ASUS43 KTOP 071108
RWRKS

WEATHER ROUNDUP FOR KANSAS
NATIONAL WEATHER SERVICE GOODLAND KS
500 AM CST WED DEC 07 2016

NOTE:  "FAIR" INDICATES FEW OR NO CLOUDS BELOW 12,000 FEET WITH NO
SIGNIFICANT WEATHER AND/OR OBSTRUCTIONS TO VISIBILITY.

KSZ001>006-013>018-027>032-041>047-071200-
NORTHWEST KANSAS

CITY           SKY/WX    TMP DP  RH WIND       PRES   REMARKS
GOODLAND       FLURRIES  21  13  71 NE14      30.06R WCI   8
HAYS           CLOUDY    25  15  66 NE16      30.13R WCI  12
HILL CITY      CLOUDY    23   9  55 E7        30.17R
RUSSELL        CLOUDY    26  14  60 NE13      30.12R WCI  15
$$

KSZ061>065-074>080-084>089-071200-
SOUTHWEST KANSAS

CITY           SKY/WX    TMP DP  RH WIND       PRES   REMARKS
DODGE CITY     CLOUDY    28  17  63 SE13      30.03F WCI  17
ELKHART          N/A     14   2  59 SE8         N/A
GARDEN CITY    CLOUDY    27  14  58 SE13      30.00S WCI  16
GREAT BEND     CLOUDY    29  20  69 E6        30.10R
LIBERAL        CLOUDY    27  14  59 SE12      29.97F WCI  16
PRATT          CLOUDY    29  17  62 SE6       30.08F
$$

KSZ066>073-081>083-090>101-071200-
SOUTHEAST KANSAS

CITY           SKY/WX    TMP DP  RH WIND       PRES   REMARKS
CHANUTE        CLOUDY    34  17  50 NE8       30.14R
COFFEYVILLE    CLOUDY    33  21  61 NE5       30.17R
HUTCHINSON     CLOUDY    33  17  51 E7        30.10S
MEDICINE LODGE   N/A     32  18  56 SE5       30.10S
NEWTON         CLOUDY    30  21  69 NE9       30.10F
PARSONS        CLOUDY    35  18  49 VRB5      30.17R
WICHITA INTL   CLOUDY    34  16  47 E7        30.12R
WICHITA JABRA  CLOUDY    32  19  58 E7        30.11F
WICHITA MCCONL CLOUDY    33  16  50 E6        30.12R
WINFIELD       CLOUDY    34  16  47 E6        30.14R
$$

KSZ007>012-019>026-033>040-048>060-102>105-071200-
NORTHEAST KANSAS

CITY           SKY/WX    TMP DP  RH WIND       PRES   REMARKS
CONCORDIA      CLOUDY    24  13  62 N14       30.17R WCI  12
EMPORIA        CLOUDY    26  15  63 NE7       30.14F
LAWRENCE       CLOUDY    30  14  51 N6        30.17F
MANHATTAN      PTCLDY    25  13  60 N3        30.18R
MARYSVILLE     CLOUDY    25  18  74 N8        30.20R
OLATHE IND     CLOUDY    30  13  49 N7        30.15F
OLATHE EXE     CLOUDY    30  11  45 NE13      30.14F WCI  20
SALINA         CLOUDY    28  13  53 NE8       30.15F
TOPEKA BILLARD CLOUDY    29  15  56 N6        30.17F
TOPEKA FORBES  CLOUDY    31  14  49 NE7       30.16F
$$



USA.gov is the U.S. government's official web portal to all federal, state and local government web resources and services.